Das Wetter in  D-61279 Heinzenberg / Taunus





Wetter Minimum- & Maximum-Werte im Mai 2007

Standort: Heinzenberg / Taunus - Höhe 297 m         8° 24' 1" Ost 50° 21' 51" Nord
(   3-stündige Aktualisierung    letzte Aktualisierung um 20:46 am 31.05.2007  )


Messgrösse

Minimum

Maximum

Durchschnitt

Temperatur West /
Luftfeuchte West
Anklicken für Monats-Diagramm

1,6 °C

06:29
02.05.2007

26 %

18:03
06.05.2007

30,6 °C

17:21
25.05.2007

98 %

03:50
29.05.2007

Temp

14,4 °C

Feuchte

73 %

Temperatur Ost /
Luftfeuchte Ost
Anklicken für Monats-Diagramm

1,8 °C

06:39
02.05.2007

--

--
--

30,8 °C

17:11
25.05.2007

--

--
--

14,7 °C

--

Luftdruck Anklicken für Monats-Diagramm

997,0 hPa

10:19
28.05.2007

1021,4 hPa

08:24
23.05.2007

1011,3 hPa

Taupunkt

-3,4 °C

05:34
02.05.2007

18,9 °C

15:37
21.05.2007

9,1 °C

Windchill
( gefühlte Temperatur )

-3,2 °C

19:10
29.05.2007

30,0 °C

17:15
24.05.2007

12,3 °C

Windgeschwindigkeit /
Windrichtung
Anklicken für Monats-Diagramm

---

66,2 km/h / W-NW

21:27
26.05.2007

9,9 km/h
W-SW

Helligkeit /
Sonnenschein
Anklicken für Monats-Diagramm
Anklicken für Monats-Diagramm

Sonnenschein:

180:26 Stunden

Max: 13:10 Std am
02.05.2007

125 klux

13:00
19.05.2007

34 klux

Solarstrahlung Anklicken für Monats-Diagramm

---

855 W/m²

13:00
19.05.2007

246 W/m²

Regenmenge
    Mai 2007
Anklicken für Monats-Diagramm

Insgesamt 117,8 l/m²

in 65:07 Stunden
an 18 Tagen

25,8 l/m²

02:27
26.05.2007

Gesamtmenge

117,8 l/m²

Regen-Tage
    Mai 2007
Anklicken für Monats-Diagramm

>   0 mm/Tag

>   2 mm/Tag

>   5 mm/Tag

> 10 mm/Tag

> 20 mm/Tag

18 Tage     
12 Tage     
8 Tage     
5 Tage     
2 Tage     

Eisige Tage Mai 2007 / 2006

Tmin ≤ -10°C     

0 Tage

/

0 Tage

Eistage Mai 2007 / 2006

Tmax <     0°C     

0 Tage

/

- - Tage

Frosttage Mai 2007 / 2006

Tmin ≤     0°C     

0 Tage

/

- - Tage

Kalte Tage Mai 2007 / 2006

Tmax <   10°C     

0 Tage

/

- - Tage

Warme Tage Mai 2007 / 2006

Tmax ≥   20°C     

16 Tage

/

0 Tage

Sommertage Mai 2007 / 2006

Tmax ≥   25°C     

6 Tage

/

- - Tage

Heisse Tage Mai 2007 / 2006

Tmax ≥   30°C     

2 Tage

/

- - Tage


Monatsdiagramm Mai 2007

Die Kurven zeigen den Durchschnittswert des jeweiligen Tages an


Wetter-Monatsübersicht Mai 2007
Datum
  Temperatur
   Luftdruck
   Wind
  Regen
   Luftfeuchte
   Helligkeit

Sonnen-
schein

Ø
Temp.

Min.
Temp.

Max.
Temp.

Ø
Luftdruck

Min.
Luftdruck

Max.
Luftdruck

Ø-Geschw.
Haupt-Richtg.

Max.
Wind

Menge /
Dauer

Ø
Feuchte

Min.
Feuchte

Max.
Feuchte

Ø
Helligkeit

Max.
Helligkeit

1.
Mai
12,2 °C2,9 °C
06:33
21,8 °C
16:53
1016,0 hPa1013,4 hPa
16:53
1017,8 hPa
06:33
5,3 km/h
SO
29,2 km/h
11:13  
---
52 %27 %
18:18
78 %
07:43
51,1 klux89,4 klux
12:53
13:05 Std 
2.
Mai
12,2 °C1,6 °C
06:29
22,8 °C
17:04
1014,6 hPa1011,2 hPa
17:04
1017,4 hPa
02:14
7,5 km/h
O-SO
30,8 km/h
12:29  
---
46 %27 %
17:19
72 %
07:09
51,2 klux90,5 klux
13:29
13:10 Std 
3.
Mai
13,1 °C2,7 °C
06:15
23,8 °C
16:50
1012,8 hPa1009,1 hPa
17:45
1015,7 hPa
06:20
4,4 km/h
SO
24,1 km/h
14:30  
---
53 %29 %
16:20
79 %
08:05
49,4 klux89,9 klux
13:00
11:23 Std 
4.
Mai
15,8 °C7,5 °C
06:16
24,6 °C
15:51
1008,7 hPa1004,9 hPa
17:11
1011,7 hPa
02:31
4,9 km/h
SO
24,9 km/h
16:41  
---
52 %32 %
16:41
75 %
06:51
46,1 klux92,6 klux
13:15
9:50 Std 
5.
Mai
15,6 °C9,1 °C
06:27
24,3 °C
17:32
1010,1 hPa1007,4 hPa
03:57
1014,8 hPa
23:58
4,2 km/h
N
26,1 km/h
18:17  
---
50 %32 %
17:37
65 %
23:48
31,2 klux96,6 klux
14:27
3:55 Std 
6.
Mai
14,5 °C4,5 °C
06:43
24,6 °C
15:53
1015,4 hPa1013,1 hPa
17:03
1017,5 hPa
07:03
6,9 km/h
W-NW
30,9 km/h
16:13  
---
56 %26 %
18:03
79 %
07:03
50,2 klux95,9 klux
14:03
11:35 Std 
7.
Mai
13,9 °C12,2 °C
08:59
16,2 °C
15:24
1012,9 hPa1009,1 hPa
22:19
1015,4 hPa
04:04
24,3 km/h
W-SW
55,1 km/h
15:19  
11,4 l/m²
5:50 Stunden
74 %54 %
00:04
93 %
23:50
16,4 klux78,5 klux
14:09
15 Min 
8.
Mai
11,8 °C9,5 °C
17:50
16,8 °C
14:35
1011,4 hPa1009,3 hPa
00:00
1012,8 hPa
17:35
23,2 km/h
W
44,0 km/h
10:35  
11,9 l/m²
3:16 Stunden
83 %55 %
14:40
95 %
01:05
27,7 klux104,0 klux
14:00
3:56 Std 
9.
Mai
11,2 °C9,8 °C
06:16
12,7 °C
11:51
1014,3 hPa1012,5 hPa
02:31
1015,8 hPa
14:21
12,2 km/h
W
34,2 km/h
02:01  
7,0 l/m²
9:51 Stunden
86 %72 %
02:26
96 %
23:47
16 klux57 klux
11:31
--- 
10.
Mai
16,0 °C11,7 °C
03:57
21,4 °C
15:57
1011,0 hPa1004,8 hPa
23:53
1015,6 hPa
00:02
24,2 km/h
W-SW
52,1 km/h
16:12  
---
5 Minuten
72 %45 %
16:22
96 %
00:02
40,1 klux115,0 klux
13:52
5:45 Std 
11.
Mai
14,6 °C10,1 °C
23:59
18,1 °C
01:48
1006,1 hPa1001,5 hPa
03:58
1010,6 hPa
23:59
28,7 km/h
W-SW
65,7 km/h
12:53  
---
5 Minuten
60 %48 %
16:13
71 %
23:59
23 klux94 klux
14:53
1:53 Std 
12.
Mai
13,3 °C9,6 °C
03:29
18,7 °C
17:34
1009,7 hPa1006,4 hPa
06:54
1013,4 hPa
23:25
21,2 km/h
W-SW
51,3 km/h
14:44  
5,2 l/m²
4:25 Stunden
75 %51 %
17:39
93 %
11:49
36,2 klux118,0 klux
14:14
5:24 Std 
13.
Mai
15,1 °C8,3 °C
05:30
23,4 °C
18:20
1008,8 hPa1002,9 hPa
18:20
1013,8 hPa
02:10
6,4 km/h
O-SO
53,8 km/h
21:25  
2,1 l/m²
1:25 Stunden
74 %54 %
18:45
89 %
08:45
26 klux81 klux
10:55
2:55 Std 
14.
Mai
13,2 °C11,4 °C
22:47
15,0 °C
00:01
1008,8 hPa1007,2 hPa
17:26
1010,2 hPa
09:56
14,8 km/h
SW
37,0 km/h
08:41  
1,7 l/m²
2:00 Stunden
80 %70 %
07:06
86 %
22:16
14,5 klux65,4 klux
11:11
5 Min 
15.
Mai
11,5 °C6,4 °C
23:53
15,9 °C
17:22
1013,8 hPa1009,4 hPa
00:02
1017,3 hPa
23:53
13,8 km/h
W-SW
33,1 km/h
15:47  
0,5 l/m²
2:00 Stunden
75 %45 %
18:42
90 %
07:22
27,2 klux122,0 klux
14:42
5:05 Std 
16.
Mai
9,4 °C4,9 °C
02:03
13,6 °C
15:43
1012,5 hPa1009,2 hPa
15:43
1017,5 hPa
01:53
13,3 km/h
SW
37,5 km/h
13:43  
4,9 l/m²
6:00 Stunden
85 %76 %
00:03
93 %
18:23
21 klux73 klux
15:28
20 Min 
17.
Mai
9,2 °C7,1 °C
05:24
13,6 °C
18:59
1012,0 hPa1009,6 hPa
13:44
1018,2 hPa
23:55
3,6 km/h
W
22,4 km/h
04:29  
4,3 l/m²
7:10 Stunden
89 %76 %
19:09
94 %
10:19
20,1 klux114,0 klux
15:54
2:40 Std 
18.
Mai
11,5 °C3,1 °C
05:50
19,5 °C
15:10
1018,2 hPa1014,9 hPa
19:20
1020,9 hPa
05:50
6,3 km/h
W-SW
27,3 km/h
14:15  
---
77 %56 %
15:35
94 %
08:10
47 klux114 klux
13:55
9:49 Std 
19.
Mai
15,3 °C9,3 °C
04:30
21,6 °C
15:25
1014,4 hPa1013,4 hPa
15:25
1015,7 hPa
01:40
2,8 km/h
W-SW
19,1 km/h
14:20  
---
10 Minuten
82 %70 %
15:30
92 %
07:50
25 klux125 klux
13:00
1:50 Std 
20.
Mai
18,9 °C12,0 °C
06:21
27,8 °C
16:31
1013,8 hPa1011,0 hPa
18:46
1015,6 hPa
06:21
4,2 km/h
SO
27,4 km/h
14:51  
---
72 %42 %
16:41
94 %
08:11
46 klux111 klux
14:16
9:30 Std 
21.
Mai
20,4 °C12,3 °C
05:52
28,8 °C
16:02
1013,9 hPa1012,6 hPa
17:32
1015,9 hPa
23:58
4,5 km/h
W
22,5 km/h
13:17  
---
70 %51 %
18:02
85 %
06:32
48 klux99 klux
13:22
10:20 Std 
22.
Mai
19,9 °C14,3 °C
05:58
28,5 °C
17:08
1017,4 hPa1015,7 hPa
17:08
1019,3 hPa
23:54
5,6 km/h
W
32,9 km/h
19:03  
---
15 Minuten
72 %45 %
17:13
89 %
07:53
44,8 klux113,0 klux
13:38
8:45 Std 
23.
Mai
17,8 °C13,7 °C
03:59
23,6 °C
17:49
1020,0 hPa1018,3 hPa
17:49
1021,4 hPa
08:24
3,1 km/h
N-NW
16,7 km/h
14:39  
---
81 %66 %
18:04
92 %
09:04
23 klux67 klux
16:19
2:41 Std 
24.
Mai
21,0 °C13,5 °C
04:15
30,0 °C
17:15
1015,0 hPa1010,4 hPa
18:10
1020,3 hPa
00:15
3,5 km/h
SO
22,0 km/h
15:05  
---
72 %45 %
17:45
91 %
06:35
43,0 klux109,0 klux
13:25
9:55 Std 
25.
Mai
21,4 °C14,4 °C
06:26
30,6 °C
17:21
1007,1 hPa1003,1 hPa
17:21
1010,8 hPa
01:31
10,4 km/h
W-SW
40,2 km/h
18:46  
2,3 l/m²
55 Minuten
68 %38 %
15:11
89 %
07:46
49 klux96 klux
13:16
11:40 Std 
26.
Mai
19,6 °C14,0 °C
22:07
27,8 °C
17:32
1002,6 hPa998,2 hPa
17:42
1006,8 hPa
02:17
6,3 km/h
W-NW
66,2 km/h
21:27  
25,8 l/m²
3:06 Stunden
80 %51 %
18:22
95 %
07:22
50,7 klux104,0 klux
12:52
10:40 Std 
27.
Mai
14,9 °C10,9 °C
23:59
18,2 °C
12:13
998,6 hPa997,2 hPa
12:13
1000,8 hPa
00:03
7,9 km/h
W-SW
29,8 km/h
14:08  
7,8 l/m²
1:05 Stunden
89 %73 %
19:13
95 %
06:38
26 klux115 klux
15:58
2:40 Std 
28.
Mai
10,1 °C9,2 °C
12:59
11,6 °C
10:19
998,7 hPa997,0 hPa
10:19
1001,4 hPa
23:25
6,7 km/h
W
26,2 km/h
11:34  
11,9 l/m²
6:48 Stunden
94 %88 %
00:04
97 %
17:59
6 klux24 klux
10:14
--- 
29.
Mai
9,2 °C6,8 °C
23:46
10,4 °C
12:25
1004,0 hPa1000,3 hPa
03:55
1013,1 hPa
23:56
18,6 km/h
W-NW
42,1 km/h
14:40  
21,3 l/m²
10:41 Stunden
97 %93 %
20:55
98 %
03:50
8,9 klux26,9 klux
14:50
--- 
30.
Mai
10,8 °C3,1 °C
05:51
17,9 °C
15:36
1013,8 hPa1012,1 hPa
20:31
1015,6 hPa
07:10
5,8 km/h
W-SW
25,5 km/h
12:06  
---
75 %50 %
17:26
97 %
07:26
45,6 klux121,0 klux
13:16
8:25 Std 
31.
Mai
13,3 °C8,8 °C
04:32
18,6 °C
18:02
1012,7 hPa1010,7 hPa
19:22
1013,9 hPa
07:22
2,6 km/h
W-SW
16,9 km/h
14:47  
---
74 %61 %
12:52
89 %
08:02
27 klux108 klux
12:37
2:55 Std 



Mai
2007

Temperatur

  

Luftdruck

  

Wind

  

Regen

  

Luftfeuchte

  

Helligkeit

Sonnen-
schein

Ø

Min

Max

Ø

Min

Max

Ø

Max

Max

Ø

Min

Max

Ø

Max

Max

14,4 °C

1,6 °C

06:29 Uhr
02.05.2007

30,6 °C

17:21 Uhr
25.05.2007

1011,3 hPa

997,0 hPa

10:19 Uhr
28.05.2007

1021,4 hPa

08:24 Uhr
23.05.2007

9,9 km/h

W-SW

66,2 km/h

21:27 Uhr
26.05.2007

25,8 l/m²

3:06 Stunden
26.05.2007

73 %

26 %

18:03 Uhr
06.05.2007

98 %

03:50 Uhr
29.05.2007

34 klux

125,0 klux

13:00 Uhr
19.05.2007

13:10 Std

am
02.05.2007

Gesamt

Gesamt

117,8 l/m²

18 Tage
65:07 h

180:26 Std


Wetter-Diagramme Mai 2007     Heinzenberg / Taunus   
TemperaturLuftfeuchte
SolarstrahlungLuftdruck
HelligkeitSonnenschein
RegenmengeRegendauer
Wind-GeschwindigkeitWind-Richtung